Regional Weather Roundup
Issued by NWS New Orleans/Baton Rouge, LA

Home | Current Version | Previous Version | Text Only | Print | Product List | Glossary Off
Versions: 1 2 3 4 5 6 7 8 9 10 11 12 13 14 15 16 17 18 19 20 21 22 23 24 25 26 27 28 29 30 31 32 33 34 35 36 37 38 39 40 41 42 43 44 45 46 47 48 49 50

306
ASUS44 KLIX 291001
RWRLIX
NEW ORLEANS REGIONAL WEATHER ROUNDUP
NATIONAL WEATHER SERVICE NEW ORLEANS LA
500 AM CDT FRI AUG 29 2014

NOTE: "FAIR" INDICATES FEW OR NO CLOUDS BELOW 12,000 FEET WITH NO
      SIGNIFICANT WEATHER AND/OR OBSTRUCTIONS TO VISIBILITY.
      SKY/WX - SKY CONDITION AND SIGNIFICANT WEATHER.
      TMP - AIR TEMPERATURE.     DP    - DEWPOINT TEMPERATURE.
      RH  - RELATIVE HUMIDITY.   PRES  - PRESSURE.
      HI  - HEAT INDEX.          WCI   - WIND CHILL INDEX.

*  THESE STATIONS ARE NOT NWS OR FAA STATIONS AND ARE NOT UNDER
   NWS QUALITY CONTROL.

LAZ038-040-048-061>063-065>067-069-291100-
SOUTHEAST LOUISIANA

CITY           SKY/WX    TMP DP  RH WIND       PRES   REMARKS
N.O. AUDUBON     N/A     82  75  81 MISG        N/A
N.O. INTL ARPT PTCLDY    79  73  82 E5        29.93S
N.O. LAKEFRONT PTCLDY    81  75  82 E7        29.94S
N.O. DOWNTOWN*   N/A     82  70  65 E5        29.94S
SLIDELL        PTCLDY    72  69  90 CALM      29.94S
BATON ROUGE    PTCLDY    74  72  93 E3        29.93S
BOOTHVILLE     PTCLDY    82  78  88 E3        29.93F
BELLE CHASSE   PTCLDY    76  72  87 NE3       29.93S
BOGALUSA*        N/A     73  70  89 CALM      29.97S
GALLIANO*      NOT AVBL
NEW ROADS*       N/A     74  74  97 NE3       29.93S
GONZALES*        N/A     73  73 100 CALM      29.93R
HAMMOND*       NOT AVBL
HOUMA*         PTCLDY    76  72  87 NE3       29.92S
PORT FOURCHON* PTSUNNY   84  77  79 SE15      29.93R

$$

MSZ070-080>082-291100-
SOUTHERN MISSISSIPPI

CITY           SKY/WX    TMP DP  RH WIND       PRES   REMARKS
MCCOMB         MOCLDY    75  72  90 CALM      29.96S
GULFPORT       CLEAR     76  72  87 CALM      29.94F
BILOXI         CLEAR     76  72  87 NE6       29.95S
PASCAGOULA     CLEAR     69  69 100 CALM      29.96S

$$

COASTAL OBSERVATIONS
LAKE AND NEARSHORE STATIONS

STATION/POSITION TIME  TEMP    WIND        PRES    WAVE
                       AIR SEA DIR/SP/G            HT/PER
                 (UTC) (F)     (DEG/KT/KT) (MB)    (FT/S)
PASCAGOULA       0900   78      30/  2/  4 1013.8
WAVELAND YACHT   0900   79      70/  7/  8 1013.4
GRAND ISLE       0900   84 84  120/  6/ 11 1013.8
SOUTHWEST PASS   0900   85 89  120/ 13/ 17 1013.2
NEW CANAL        0900   80 84   CALM  /  1 1014.1
SHELL BEACH      0900   82 82   90/  6/  8 1013.5

OFFSHORE STATIONS

STATION/POSITION TIME  TEMP    WIND        PRES    WAVE
                       AIR SEA DIR/SP/G            HT/PER
                 (UTC) (F)     (DEG/KT/KT) (MB)    (FT/S)
64 S DAUPHIN ISL 0855   85 85  120/ 10/ 12 1013.2

$$




USA.gov is the U.S. government's official web portal to all federal, state and local government web resources and services.